Regional Weather Roundup
Issued by NWS

Home | Current Version | Previous Version | Text Only | Print | Product List | Glossary On
Versions: 1 2 3 4 5 6 7 8 9 10 11 12 13 14 15 16 17 18 19 20 21 22 23 24 25 26 27 28 29 30 31 32 33 34 35 36 37 38 39 40 41 42 43 44 45 46 47 48 49 50
000
ASUS43 KMKX 010521
RWRWI

WISCONSIN REGIONAL WEATHER ROUNDUP
NATIONAL WEATHER SERVICE MILWAUKEE/SULLIVAN WI
1200 AM CDT MON MAY 01 2017

NOTE: "FAIR" INDICATES FEW OR NO CLOUDS BELOW 12,000 FEET WITH NO
SIGNIFICANT WEATHER AND/OR OBSTRUCTIONS TO VISIBILITY.

WIZ001-002-006>008-014>016-023>028-010600-
NORTHWEST WISCONSIN

CITY           SKY/WX    TMP DP  RH WIND       PRES   REMARKS
SUPERIOR ARPT  CLOUDY    39  29  67 NE14G24   29.79F WCI  31
ASHLAND        CLOUDY    39  29  67 NE12      29.79F WCI  32
HAYWARD        LGT RAIN  40  29  64 NE7G17    29.70F
SIREN          LGT RAIN  36  31  82 NE10G17   29.69F WCI  28
CUMBERLAND     RAIN      37  32  81 NE15G21   29.66S WCI  28
RICE LAKE      RAIN      39  36  89 NE8       29.69R WCI  33
CHETEK         LGT RAIN  38  35  90 E13       29.66  WCI  30
LADYSMITH      CLOUDY    40  37  90 NE8       29.68F WCI  34
EAU CLAIRE     HVY RAIN  40  37  89 E8        29.63R FOG     WCI  34
MENOMONIE      MIX PCPN  40  40  97 NE13G18   29.65R WCI  33
NEW RICHMOND   MIX PCPN  38  34  86 NE9       29.68R WCI  31
OSCEOLA        LGT RAIN  39  35  87 NE7       29.73R WCI  34
$$

WIZ003>005-009-010-017-018-010600-
NORTH CENTRAL WISCONSIN

CITY           SKY/WX    TMP DP  RH WIND       PRES   REMARKS
MANITOWISH WTR NOT AVBL
ARBOR VITAE    CLOUDY    39  35  86 E9G21     29.71F WCI  33
WOODRUFF       CLOUDY    39  35  86 E9G21     29.71F WCI  33
RHINELANDER    CLOUDY    38  37  97 E13G23    29.71F WCI  30
EAGLE RIVER    DRIZZLE   37  33  85 E15G23    29.72F WCI  28
LAND O LAKES   DRIZZLE   39  33  80 E12G17    29.75F WCI  31
PHILLIPS       CLOUDY    38  37  97 E13G18    29.67F WCI  30
TOMAHAWK       CLOUDY    37  34  90 E10G18    29.71S WCI  29
MEDFORD        RAIN      36  34  92 E23G29    29.64F WCI  24
MERRILL        CLOUDY    37  36  94 E12G20    29.70S WCI  29
$$

WIZ029-030-035-036-043>047-010600-
CENTRAL WISCONSIN

CITY           SKY/WX    TMP DP  RH WIND       PRES   REMARKS
WAUSAU         RAIN      36  35  96 E16G26    29.66F WCI  26
MOSINEE        LGT RAIN  34  34 100 E24G30    29.66F WCI  21
MARSHFIELD     RAIN      37  34  89 E22G29    29.60F WCI  26
STEVENS POINT  RAIN      34  34 100 E21G28    29.64F WCI  23
WAUPACA        LGT RAIN  39  37  93 NE9G25    29.67F WCI  33
WAUTOMA        RAIN      38  36  92 NE18G30   29.61  WCI  28
WISC RAPIDS    LGT RAIN  37  36  96 E21G28    29.64F WCI  26
CAMP DOUGLAS   RAIN      37  37 100 E5        29.61R FOG     WCI  34
$$

WIZ011>013-019>022-031-037>040-048>050-010600-
NORTHEAST WISCONSIN

CITY           SKY/WX    TMP DP  RH WIND       PRES   REMARKS
ANTIGO         CLOUDY    34  34  99 E18G26    29.71S WCI  23
SHAWANO        RAIN      39  36  88 E17G23    29.74F WCI  30
OCONTO         NOT AVBL
STURGEON BAY   LGT RAIN  37  35  92 NE16      29.75F WCI  28
GREEN BAY      LGT RAIN  39  38  96 NE18G26   29.71F WCI  30
MANITOWOC      CLOUDY    39  37  92 NE16      29.69F WCI  30
APPLETON       RAIN      36  36 100 NE15G21   29.68S WCI  26
CLINTONVILLE   LGT RAIN  36  34  93 E16G22    29.70F WCI  26
OSHKOSH        RAIN      39  37  92 NE14G22   29.64F FOG     WCI  31
$$

WIZ032>034-041-042-053>061-010600-
SOUTHWEST WISCONSIN

CITY           SKY/WX    TMP DP  RH WIND       PRES   REMARKS
LA CROSSE      LGT RAIN  41  40  96 CALM      29.66F FOG
SPARTA         HVY RAIN  38  37  97 S6        29.69R WCI  33
VIROQUA        CLOUDY    38  38 100 NE12      29.56F WCI  30
BOSCOBEL       LGT RAIN  41  32  70 VRB6      29.55F
PRAIRIE DU CHI DRIZZLE   40  39  97 NE3       29.54F
PLATTEVILLE    MOCLDY    42  42 100 NE12      29.53F
$$

WIZ056-057-062-063-064-067-068-010600-
SOUTH CENTRAL WISCONSIN

CITY           SKY/WX    TMP DP  RH WIND       PRES   REMARKS
REEDSBURG      RAIN      38  38 100 E12       29.58F WCI  31
BARABOO/DELLS  RAIN      38  37  97 E10       29.59R WCI  31
LONE ROCK      HVY RAIN  41  39  93 N5        29.62R VSB 1
MINERAL POINT  LGT RAIN  41  41 100 NE12      29.54F
MADISON        LGT RAIN  41  39  93 E9        29.57F
MIDDLETON      CLOUDY    42  42 100 NE10      29.57F
WATERTOWN      LGT RAIN  41  41 100 NE21G26   29.54F
MONROE         LGT RAIN  41  41 100 NE8       29.56R
JANESVILLE     CLOUDY    43  43 100 E15       29.54F
$$

WIZ051-052-058>065-066-070>072-010600-
SOUTHEAST WISCONSIN

CITY           SKY/WX    TMP DP  RH WIND       PRES   REMARKS
MILWAUKEE      TSTM      42  41  96 N13G23    29.59F FOG
WAUKESHA       RAIN      37  37 100 NE15G29   29.59F WCI  28
MILWAUKEE/TIMM RAIN      39  36  87 NE13G20   29.61F WCI  32
RACINE         TSTM      42  40  92 NE14      29.59F FOG
KENOSHA        TSTM      42  41  96 NE10      29.57R FOG
FOND DU LAC    RAIN      40  36  86 NE17      29.62F FOG     WCI  31
SHEBOYGAN      LGT RAIN  39  37  92 NE20G29   29.64F WCI  29
WEST BEND      LGT RAIN  39  39 100 E14G25    29.63F WCI  31
JUNEAU         RAIN      39  38  97 NE17G23   29.58F WCI  30
$$

LSZ147-162-010600-
LAKE SUPERIOR

STATION/POSITION TIME  TEMP    WIND        PRES    WAVE
                       AIR SEA DIR/SP/G            HT/PER
                 (UTC) (F)     (DEG/KT/KT) (MB)    (FT/S)
DEVILS ISLAND    0500   38      40/ 18/ 19 1010.0F
PORT WING        0440   38      30/ 16/ 19 1009.1F
SAXON HARBOR     0440   39      50/ 12/ 16 1008.5F
$$

LMZ867-665-643>646-010600-
LAKE MICHIGAN

STATION/POSITION TIME  TEMP    WIND        PRES    WAVE
                       AIR SEA DIR/SP/G            HT/PER
                 (UTC) (F)     (DEG/KT/KT) (MB)    (FT/S)
CHAMBERS ISLAND  0440   38      50/ 17/ 24 1008.5F
N MID LAKE BUOY  0450   37 37   70/ 19/ 21 1009.7F   4/ 5
NORTHPORT PIER   0500   38      70/ 16     1009.1
KEWAUNEE LAKESHO 0500   38      50/ 14/ 21 1005.7
SHEBOYGAN LAKESH 0500   39      30/ 22/ 26 1004.0F
PORT WASHINGTON  0440   42      40/ 19/ 24 1004.4F
MILWAUKEE LAKESH 0500   40      30/ 18/ 20   N/A
S MID LAKE BUOY  0450   42 41   60/ 21/ 25 1000.6F   4/ 5
KENOSHA   LAKESH 0500   42      20/ 13/ 19 1002.4
$$

TC  - TEMPERATURE IN CELSIUS
VSB - VISIBILITY IN STATUTE MILES
WCI - WIND CHILL INDEX
HX  - HEAT INDEX




USA.gov is the U.S. government's official web portal to all federal, state and local government web resources and services.